[[{"header":{"parameterUnit":"m.s-1","parameterCategory":2,"la1":30.2991,"la2":30.254,"lo1":-89.0895,"lo2":-89.0444,"dy":0.0017,"dx":0.0017,"nx":28,"ny":28,"refTime":"2024-05-04T09:00:00:Z","depth":"0","parameterNumber":2,"parameterNumberName":"U-component_of_CURRENTS"},"data":[0,0,0,0,0,0,0,0,0,0,0,0,0,0,0,0,0,0,0,0,0,0,0,0,0,0,0,0,0,0,0,0,0,0,0,0,0,0,0,0,0,0,0,0,0,0,0,0,0,0,0,0,0,0,0,0,0,0,-0.1904,-0.1904,0,-0.1951,-0.1952,-0.1952,-0.195,-0.1949,-0.1948,-0.1947,-0.1978,-0.198,-0.1981,0,0,0,0,0,0,0,0,0,0,0,0,0,-0.1892,-0.1892,-0.1904,-0.1904,-0.1905,-0.1951,-0.1952,-0.1952,-0.195,-0.1949,-0.1948,-0.1947,-0.1978,-0.198,-0.1981,0,0,0,0,0,0,0,0,0,0,0,0,0,-0.1914,-0.1892,-0.1904,-0.1909,-0.191,-0.1951,-0.1952,-0.1952,-0.195,-0.1949,-0.1948,-0.1947,-0.1977,-0.198,-0.1982,-0.2017,0,0,-0.1989,-0.1989,0,0,0,0,0,0,0,0,-0.1913,-0.1914,-0.1907,-0.1909,-0.191,-0.1943,-0.1959,-0.1973,-0.195,-0.1935,-0.1947,-0.1946,-0.1966,-0.1969,-0.1981,-0.2018,-0.202,-0.1989,-0.199,-0.1991,-0.1992,0,0,0,0,0,0,0,-0.1911,-0.1913,-0.1923,-0.1908,-0.1909,-0.1937,-0.1938,-0.1962,-0.1956,-0.1936,-0.1936,-0.1941,-0.1966,-0.1979,-0.1981,-0.202,-0.1989,-0.1991,-0.1992,-0.1993,-0.2113,-0.2115,0,0,0,0,0,0,-0.1902,-0.1911,-0.1921,-0.1924,-0.1908,-0.1937,-0.1939,-0.1934,-0.1956,-0.1958,-0.1942,-0.1941,-0.1975,-0.1979,-0.1982,-0.2019,-0.1991,-0.1993,-0.1994,-0.2111,-0.2113,-0.2115,0,0,0,0,0,0,-0.1901,-0.1902,-0.1919,-0.1919,-0.1923,-0.1938,-0.1933,-0.1935,-0.1943,-0.196,-0.1962,-0.1946,-0.1975,-0.1979,-0.2019,-0.202,-0.1994,-0.1996,-0.2109,-0.2112,-0.2114,-0.2096,0,0,0,0,0,0,-0.19,-0.1901,-0.1897,-0.1918,-0.1923,-0.1937,-0.1934,-0.1937,-0.1948,-0.1946,-0.1965,-0.1967,-0.1974,-0.2016,-0.2021,-0.2023,-0.1998,-0.2107,-0.211,-0.2114,-0.2094,-0.2098,-0.2101,0,0,0,0,0,-0.1899,-0.1899,-0.1897,-0.1898,-0.1916,-0.1937,-0.1943,-0.1951,-0.1949,-0.1953,-0.1981,-0.1966,-0.2041,-0.2019,-0.2025,-0.2027,-0.2105,-0.2109,-0.2113,-0.2093,-0.2097,-0.2101,0,0,0,0,0,0,-0.1901,-0.1899,-0.1897,-0.1897,-0.1913,-0.1937,-0.1943,-0.1952,-0.1978,-0.1977,-0.1992,-0.1997,-0.2035,-0.2046,-0.2021,-0.2078,-0.207,-0.2076,-0.2053,-0.2057,-0.206,-0.2036,-0.2,0,0,0,0,0,-0.1898,-0.1889,-0.1901,-0.1903,-0.1906,-0.1925,-0.1936,-0.1943,-0.1968,-0.1977,-0.1992,-0.2021,-0.206,-0.2068,-0.2102,-0.2129,-0.2102,-0.2138,-0.2141,-0.2144,-0.2132,-0.2116,-0.2115,-0.2129,-0.2129,-0.2129,0,0,-0.1902,-0.1899,-0.1896,-0.1902,-0.1912,-0.1928,-0.1928,-0.1943,-0.1961,-0.1978,-0.2005,-0.2035,-0.2076,-0.2111,-0.2127,-0.2114,-0.2122,-0.2149,-0.215,-0.2137,-0.212,-0.2118,-0.2116,-0.2132,-0.2131,-0.2131,0,0,-0.191,-0.1898,-0.1896,-0.1905,-0.1917,-0.193,-0.1933,-0.1954,-0.1962,-0.2,-0.2024,-0.2055,-0.2102,-0.2128,-0.215,-0.2195,-0.2149,-0.2208,-0.2188,-0.2173,-0.217,-0.2167,-0.2101,-0.2092,-0.2198,-0.2198,-0.2198,0,-0.192,-0.1912,-0.1904,-0.191,-0.1919,-0.1929,-0.1943,-0.1962,-0.1996,-0.2,-0.2004,-0.2075,-0.2109,-0.215,-0.2173,-0.2196,-0.2162,-0.2162,-0.2171,-0.2169,-0.2166,-0.2099,-0.2089,-0.2197,-0.2197,-0.2197,-0.2197,0,-0.1928,-0.1926,-0.1927,-0.1931,-0.1941,-0.1954,-0.1972,-0.1983,-0.1993,-0.2006,-0.2037,-0.2083,-0.2115,-0.214,-0.2173,-0.2183,-0.2153,-0.218,-0.2146,-0.2162,-0.2091,-0.2082,-0.2197,-0.2197,-0.2197,-0.2197,0,0,-0.1944,-0.1934,-0.1937,-0.1937,-0.195,-0.1961,-0.1981,-0.1996,-0.2002,-0.2022,-0.2025,-0.2097,-0.2096,-0.2124,-0.2158,-0.215,-0.2108,-0.2154,-0.2153,-0.2059,-0.2024,-0.1991,-0.1977,-0.2128,-0.2127,-0.2127,-0.1969,0,-0.1958,-0.1965,-0.1957,-0.1974,-0.1979,-0.1982,-0.1999,-0.2012,-0.202,-0.2026,-0.2044,-0.2073,-0.2098,-0.2114,-0.2109,-0.213,-0.2088,-0.2145,-0.2047,-0.2043,-0.199,-0.1968,-0.1898,-0.1752,-0.1959,-0.1958,-0.1956,0,-0.1967,-0.197,-0.1981,-0.198,-0.1982,-0.1996,-0.2001,-0.2018,-0.2022,-0.2024,-0.2024,-0.2039,-0.2047,-0.2069,-0.2034,-0.2065,-0.2035,-0.2028,-0.2022,-0.199,-0.1994,-0.178,-0.1726,-0.1694,-0.1942,-0.1943,-0.1944,0,-0.1972,-0.1983,-0.1987,-0.1991,-0.2,-0.2001,-0.2008,-0.2013,-0.2019,-0.2017,-0.2011,-0.2007,-0.2006,-0.1981,-0.1965,-0.1996,-0.1899,-0.1942,-0.1859,-0.1854,-0.1775,-0.1766,-0.1657,-0.1882,-0.1883,-0.1883,-0.1883,0,-0.1979,-0.1983,-0.199,-0.1995,-0.2007,-0.2004,-0.201,-0.2015,-0.2011,-0.2002,-0.2008,-0.1991,-0.1988,-0.194,-0.1924,-0.1844,-0.1853,-0.1831,-0.1815,-0.1767,-0.1759,-0.1716,-0.1749,-0.1877,-0.1878,-0.1879,-0.1881,0,-0.1976,-0.1979,-0.1989,-0.2001,-0.2007,-0.2015,-0.2017,-0.2014,-0.2011,-0.1996,-0.1992,-0.1964,-0.1901,-0.1863,-0.1807,-0.1781,-0.1687,-0.1687,-0.1604,-0.1583,-0.1513,-0.1549,-0.1438,-0.1401,-0.1571,-0.1569,-0.1567,0,-0.1972,-0.1974,-0.1997,-0.2006,-0.2011,-0.202,-0.2022,-0.2021,-0.201,-0.1973,-0.1957,-0.1894,-0.1839,-0.1717,-0.1654,-0.156,-0.1582,-0.1446,-0.1519,-0.1473,-0.1501,-0.1535,-0.1515,-0.1382,-0.1379,-0.1377,-0.1375,0,-0.1964,-0.197,-0.1977,-0.2004,-0.2012,-0.2018,-0.2014,-0.2003,-0.1981,-0.1956,-0.1889,-0.184,-0.1714,-0.1588,-0.1474,-0.1424,-0.142,-0.1398,-0.1375,-0.1358,-0.1362,-0.1329,-0.1493,-0.1354,-0.1356,-0.1358,-0.1359,-0.136,-0.1951,-0.1957,-0.1966,-0.1986,-0.2003,-0.1996,-0.1956,-0.1936,-0.1898,-0.1798,-0.181,-0.1684,-0.1565,-0.1403,-0.133,-0.1177,-0.1271,-0.116,-0.1201,-0.1234,-0.1224,-0.1327,-0.1177,-0.1178,-0.1179,-0.118,-0.118,0,-0.1917,-0.1922,-0.1944,-0.195,-0.1953,-0.197,-0.1927,-0.185,-0.1757,-0.1673,-0.1595,-0.1464,-0.1323,-0.1202,-0.1051,-0.0994,-0.0977,-0.0974,-0.0998,-0.0985,-0.1067,-0.1087,-0.0882,-0.0882,-0.0882,-0.0882,-0.0882,-0.0882,-0.189,-0.1885,-0.1898,-0.189,-0.1895,-0.1819,-0.177,-0.1655,-0.1551,-0.1367,-0.1248,-0.1212,-0.113,-0.1101,-0.0947,-0.0886,-0.0873,-0.0856,-0.0886,-0.0947,-0.0968,-0.0988,-0.1011,-0.0794,-0.0794,-0.0749,-0.0749,-0.0749]},{"header":{"parameterUnit":"m.s-1","parameterCategory":2,"la1":30.2991,"la2":30.254,"lo1":-89.0895,"lo2":-89.0444,"dy":0.0017,"dx":0.0017,"nx":28,"ny":28,"refTime":"2024-05-04T09:00:00:Z","depth":"0","parameterNumber":3,"parameterNumberName":"V-component_of_CURRENTS"},"data":[0,0,0,0,0,0,0,0,0,0,0,0,0,0,0,0,0,0,0,0,0,0,0,0,0,0,0,0,0,0,0,0,0,0,0,0,0,0,0,0,0,0,0,0,0,0,0,0,0,0,0,0,0,0,0,0,0,0,-0.0323,-0.0322,0,-0.0141,-0.0139,-0.0136,-0.0044,-0.0045,-0.0045,-0.0045,0.0135,0.014,0.0145,0,0,0,0,0,0,0,0,0,0,0,0,0,-0.0426,-0.0425,-0.0323,-0.0321,-0.0319,-0.0141,-0.0139,-0.0136,-0.0044,-0.0045,-0.0045,-0.0045,0.0133,0.0139,0.0145,0,0,0,0,0,0,0,0,0,0,0,0,0,-0.0324,-0.0425,-0.0324,-0.0254,-0.0246,-0.0142,-0.0138,-0.0135,-0.0044,-0.0045,-0.0045,-0.0045,0.0131,0.0139,0.0146,0.0198,0,0,0.0169,0.0172,0,0,0,0,0,0,0,0,-0.033,-0.0321,-0.0266,-0.0259,-0.025,-0.0118,-0.0109,-0.0025,-0.0044,-0.0118,-0.0045,-0.0045,0.0049,0.0063,0.0102,0.0206,0.0214,0.0169,0.0174,0.0177,0.0179,0,0,0,0,0,0,0,-0.0338,-0.0327,-0.0249,-0.0264,-0.0254,-0.0175,-0.0162,-0.0091,-0.0034,-0.0112,-0.0105,-0.0089,0.0053,0.0094,0.0106,0.0216,0.0169,0.0176,0.018,0.0183,0.0373,0.0373,0,0,0,0,0,0,-0.0374,-0.0335,-0.0254,-0.0243,-0.0295,-0.0174,-0.0159,-0.0158,-0.0034,-0.0016,-0.0089,-0.0086,0.0082,0.0098,0.0113,0.0171,0.0177,0.0184,0.0188,0.0372,0.0373,0.0373,0,0,0,0,0,0,-0.0377,-0.0369,-0.0262,-0.0286,-0.0267,-0.0174,-0.0171,-0.0154,-0.0117,-0.0017,0.0001,-0.0071,0.0082,0.0102,0.0188,0.0179,0.0187,0.0194,0.0371,0.0372,0.0373,0.0294,0,0,0,0,0,0,-0.0381,-0.0372,-0.0372,-0.0289,-0.0267,-0.0208,-0.0171,-0.0151,-0.0108,-0.0101,0.0005,0.0022,0.0083,0.0177,0.0195,0.0189,0.02,0.0371,0.0372,0.0373,0.0296,0.0292,0.0289,0,0,0,0,0,-0.0386,-0.0387,-0.0374,-0.0363,-0.0276,-0.0209,-0.019,-0.0121,-0.0107,-0.0089,-0.0008,0.0018,0.0195,0.0184,0.0206,0.0201,0.037,0.0371,0.0373,0.0298,0.0293,0.0289,0,0,0,0,0,0,-0.0416,-0.0376,-0.036,-0.0345,-0.0288,-0.0194,-0.0168,-0.0129,-0.005,-0.0045,0.0042,0.0066,0.0134,0.0184,0.0169,0.026,0.028,0.0286,0.0216,0.0212,0.0209,0.0186,0.0206,0,0,0,0,0,-0.0431,-0.043,-0.0369,-0.0354,-0.0336,-0.0257,-0.022,-0.0177,-0.0101,-0.0067,0.0008,0.0086,0.0159,0.0197,0.0271,0.0328,0.035,0.0336,0.0332,0.0328,0.0325,0.0354,0.0351,0.0377,0.0377,0.0377,0,0,-0.0434,-0.0414,-0.0408,-0.0361,-0.0314,-0.0277,-0.0235,-0.0188,-0.015,-0.006,0.0014,0.0081,0.0174,0.024,0.0272,0.0279,0.033,0.033,0.0326,0.0325,0.0355,0.0352,0.0349,0.0378,0.0378,0.0378,0,0,-0.0439,-0.0432,-0.043,-0.0394,-0.034,-0.0293,-0.0289,-0.0206,-0.0166,-0.0087,-0.0019,0.0044,0.0161,0.0222,0.0267,0.0289,0.0313,0.0303,0.0265,0.0292,0.029,0.0288,0.0293,0.0292,0.0297,0.0297,0.0297,0,-0.0439,-0.0435,-0.0412,-0.0396,-0.0365,-0.0311,-0.0286,-0.0234,-0.0128,-0.0097,-0.0077,0.0082,0.0152,0.0229,0.0237,0.0278,0.029,0.027,0.0284,0.0283,0.0282,0.0288,0.0288,0.0293,0.0293,0.0294,0.0294,0,-0.0437,-0.0429,-0.0425,-0.0397,-0.0363,-0.0334,-0.0276,-0.0237,-0.0193,-0.0136,-0.0058,0.004,0.0128,0.0152,0.0207,0.0238,0.0246,0.0275,0.0285,0.0274,0.0282,0.0283,0.0288,0.0289,0.029,0.0291,0,0,-0.0443,-0.0428,-0.0425,-0.0416,-0.0365,-0.0334,-0.0295,-0.0234,-0.0208,-0.013,-0.0087,0.0023,0.0056,0.011,0.0172,0.0194,0.0195,0.0223,0.0226,0.0209,0.0234,0.0235,0.0237,0.0221,0.0221,0.0221,0.0233,0,-0.044,-0.043,-0.0416,-0.0388,-0.0376,-0.0332,-0.0297,-0.0242,-0.0191,-0.0138,-0.0068,0.0002,0.0045,0.008,0.0108,0.0188,0.0198,0.0188,0.0264,0.0266,0.0253,0.0239,0.0288,0.0303,0.0235,0.0235,0.0235,0,-0.0438,-0.0433,-0.0421,-0.0396,-0.0387,-0.0362,-0.0314,-0.0274,-0.0205,-0.0168,-0.0113,-0.0051,0.0011,0.004,0.0129,0.0118,0.0163,0.0208,0.021,0.0241,0.027,0.031,0.0309,0.0413,0.0238,0.0237,0.0237,0,-0.0457,-0.0435,-0.0432,-0.0419,-0.0382,-0.0369,-0.0343,-0.0284,-0.0257,-0.0193,-0.0172,-0.0091,-0.0048,0.0017,0.0103,0.0118,0.0181,0.022,0.0257,0.0256,0.033,0.0336,0.0426,0.0262,0.0262,0.0262,0.0262,0,-0.0462,-0.0457,-0.0444,-0.0439,-0.043,-0.0396,-0.0376,-0.034,-0.0294,-0.0273,-0.0196,-0.017,-0.0053,0.0003,0.0077,0.0159,0.0159,0.0242,0.0262,0.0303,0.0306,0.0427,0.0464,0.0263,0.0262,0.0262,0.0262,0,-0.0482,-0.0474,-0.0471,-0.0448,-0.0442,-0.0437,-0.0409,-0.0398,-0.0352,-0.0326,-0.0311,-0.0228,-0.0157,-0.0057,0.0052,0.0126,0.0268,0.0231,0.0256,0.0278,0.0424,0.0454,0.0539,0.0595,0.0286,0.0286,0.0286,0,-0.0493,-0.0496,-0.0489,-0.0496,-0.0488,-0.0478,-0.0475,-0.0432,-0.0424,-0.0367,-0.0364,-0.0289,-0.0249,-0.0102,0.0053,0.0173,0.0263,0.0294,0.0342,0.043,0.0479,0.0498,0.0541,0.0405,0.0406,0.0406,0.0407,0,-0.0512,-0.0515,-0.0518,-0.0537,-0.0543,-0.0547,-0.0541,-0.0543,-0.0499,-0.0484,-0.047,-0.0438,-0.027,-0.0106,0.0071,0.0166,0.0382,0.0315,0.0419,0.0582,0.0599,0.0663,0.0379,0.0415,0.0414,0.0414,0.0413,0.0413,-0.0532,-0.0547,-0.0563,-0.0585,-0.0599,-0.0627,-0.0649,-0.0641,-0.0649,-0.0629,-0.0575,-0.0494,-0.0202,0.0059,0.0163,0.0461,0.0427,0.0571,0.0598,0.0608,0.0674,0.0383,0.0433,0.0433,0.0432,0.0432,0.0431,0,-0.056,-0.0587,-0.061,-0.0648,-0.0694,-0.0681,-0.0706,-0.0732,-0.0768,-0.0684,-0.0669,-0.0336,-0.0074,0.0226,0.0611,0.075,0.0801,0.0825,0.0896,0.0926,0.0695,0.0715,0.0813,0.0813,0.0813,0.0812,0.0812,0.0812,-0.0578,-0.062,-0.0642,-0.0736,-0.0769,-0.0836,-0.0866,-0.0888,-0.0838,-0.0714,-0.051,-0.0343,0.01,0.0659,0.1003,0.1041,0.1157,0.1137,0.1176,0.1055,0.1035,0.1015,0.1045,0.1211,0.1212,0.1432,0.1434,0.1436]}],[{"header":{"parameterUnit":"m.s-1","parameterCategory":2,"la1":30.2991,"la2":30.254,"lo1":-89.0895,"lo2":-89.0444,"dy":0.0017,"dx":0.0017,"nx":28,"ny":28,"refTime":"2024-05-04T09:00:00:Z","depth":"2","parameterNumber":2,"parameterNumberName":"U-component_of_CURRENTS"},"data":[0,0,0,0,0,0,0,0,0,0,0,0,0,0,0,0,0,0,0,0,0,0,0,0,0,0,0,0,0,0,0,0,0,0,0,0,0,0,0,0,0,0,0,0,0,0,0,0,0,0,0,0,0,0,0,0,0,0,-0.1321,-0.1324,0,-0.1565,-0.1567,-0.1569,-0.165,-0.165,-0.1649,-0.1649,-0.1619,-0.1619,-0.1618,0,0,0,0,0,0,0,0,0,0,0,0,0,-0.1063,-0.1066,-0.1321,-0.1325,-0.1328,-0.1564,-0.1567,-0.157,-0.165,-0.165,-0.1649,-0.1649,-0.1619,-0.1619,-0.1618,0,0,0,0,0,0,0,0,0,0,0,0,0,-0.1221,-0.1067,-0.132,-0.1402,-0.1412,-0.1564,-0.1567,-0.157,-0.165,-0.165,-0.1649,-0.1649,-0.1619,-0.1619,-0.1618,-0.1627,0,0,-0.1616,-0.1616,0,0,0,0,0,0,0,0,-0.1212,-0.1229,-0.1386,-0.1397,-0.1408,-0.1582,-0.1466,-0.1578,-0.1651,-0.1553,-0.1649,-0.1648,-0.1586,-0.1588,-0.163,-0.1626,-0.1624,-0.1616,-0.1616,-0.1616,-0.1615,0,0,0,0,0,0,0,-0.12,-0.122,-0.1411,-0.139,-0.1404,-0.1474,-0.1494,-0.1489,-0.156,-0.1561,-0.1569,-0.1607,-0.1589,-0.1631,-0.1629,-0.1624,-0.1616,-0.1616,-0.1615,-0.1615,-0.1649,-0.1651,0,0,0,0,0,0,-0.1178,-0.1209,-0.1403,-0.1419,-0.1314,-0.1479,-0.1501,-0.1522,-0.1566,-0.1577,-0.1608,-0.161,-0.1632,-0.163,-0.1628,-0.1638,-0.1616,-0.1615,-0.1615,-0.1648,-0.165,-0.1651,0,0,0,0,0,0,-0.1171,-0.1192,-0.1393,-0.1326,-0.1357,-0.1484,-0.1507,-0.1527,-0.1585,-0.1606,-0.1609,-0.1647,-0.1631,-0.1629,-0.1604,-0.1637,-0.1615,-0.1614,-0.1647,-0.1649,-0.165,-0.1658,0,0,0,0,0,0,-0.1162,-0.1187,-0.1202,-0.1324,-0.136,-0.1462,-0.1509,-0.1532,-0.1611,-0.1617,-0.164,-0.1637,-0.1631,-0.1605,-0.1604,-0.1635,-0.1614,-0.1645,-0.1648,-0.165,-0.1656,-0.166,-0.1663,0,0,0,0,0,-0.1152,-0.1172,-0.12,-0.1225,-0.1372,-0.1463,-0.1486,-0.1571,-0.1614,-0.1623,-0.1632,-0.1637,-0.1622,-0.1604,-0.1603,-0.1635,-0.1644,-0.1647,-0.165,-0.1655,-0.1659,-0.1663,0,0,0,0,0,0,-0.1078,-0.1187,-0.1219,-0.1274,-0.1352,-0.1478,-0.1518,-0.1582,-0.1611,-0.1618,-0.1627,-0.1622,-0.1626,-0.1625,-0.1607,-0.1657,-0.1645,-0.1647,-0.1649,-0.1654,-0.1657,-0.164,-0.1613,0,0,0,0,0,-0.1066,-0.1103,-0.1211,-0.1256,-0.1292,-0.1408,-0.1464,-0.1525,-0.1576,-0.1595,-0.1622,-0.164,-0.1641,-0.1637,-0.1642,-0.1648,-0.1619,-0.1679,-0.1683,-0.1685,-0.1673,-0.1647,-0.1646,-0.1661,-0.1661,-0.166,0,0,-0.1055,-0.1121,-0.1145,-0.1243,-0.1315,-0.1358,-0.1437,-0.1523,-0.1557,-0.1579,-0.162,-0.1647,-0.1645,-0.1658,-0.1662,-0.1655,-0.1666,-0.1689,-0.1691,-0.1677,-0.165,-0.1648,-0.1646,-0.1663,-0.1662,-0.1662,0,0,-0.1052,-0.1102,-0.1131,-0.1181,-0.129,-0.1347,-0.1369,-0.1497,-0.1543,-0.1593,-0.1616,-0.1645,-0.1678,-0.1676,-0.1676,-0.1699,-0.1686,-0.1735,-0.1733,-0.1708,-0.1706,-0.1703,-0.1655,-0.1648,-0.1736,-0.1736,-0.1736,0,-0.1032,-0.1085,-0.1153,-0.1189,-0.1232,-0.1331,-0.1364,-0.1419,-0.1527,-0.1547,-0.1597,-0.1669,-0.1682,-0.1666,-0.1699,-0.1705,-0.1684,-0.1712,-0.1709,-0.1706,-0.1703,-0.1654,-0.1646,-0.1736,-0.1736,-0.1736,-0.1736,0,-0.1049,-0.1088,-0.1109,-0.1167,-0.1208,-0.126,-0.1333,-0.1379,-0.1465,-0.1527,-0.1578,-0.1624,-0.1657,-0.1698,-0.1711,-0.1714,-0.1703,-0.1713,-0.1689,-0.1701,-0.165,-0.1642,-0.1737,-0.1737,-0.1737,-0.1737,0,0,-0.1002,-0.1101,-0.1105,-0.1132,-0.1206,-0.1247,-0.1268,-0.1321,-0.1345,-0.1457,-0.1484,-0.1558,-0.1619,-0.1625,-0.1666,-0.1678,-0.1663,-0.1705,-0.1704,-0.164,-0.1593,-0.159,-0.158,-0.1678,-0.1677,-0.1677,-0.156,0,-0.0994,-0.1053,-0.1098,-0.113,-0.1161,-0.1216,-0.1228,-0.1278,-0.1341,-0.1381,-0.1446,-0.1491,-0.1575,-0.1618,-0.1637,-0.1668,-0.1644,-0.1692,-0.1605,-0.1602,-0.1584,-0.1572,-0.1426,-0.1311,-0.1552,-0.155,-0.1549,0,-0.0986,-0.103,-0.1074,-0.1126,-0.1141,-0.1163,-0.1193,-0.1223,-0.1256,-0.1311,-0.1357,-0.1411,-0.145,-0.1527,-0.1545,-0.1579,-0.1579,-0.1599,-0.1594,-0.1581,-0.1584,-0.1342,-0.1287,-0.1535,-0.1536,-0.1537,-0.1538,0,-0.0932,-0.1002,-0.104,-0.106,-0.1128,-0.1146,-0.1174,-0.1209,-0.1226,-0.1261,-0.1285,-0.1328,-0.1372,-0.1393,-0.1486,-0.1504,-0.1497,-0.1503,-0.1471,-0.1469,-0.1319,-0.1307,-0.1458,-0.1458,-0.1458,-0.1459,-0.1459,0,-0.0899,-0.093,-0.1028,-0.1046,-0.107,-0.1127,-0.1141,-0.1169,-0.1197,-0.1206,-0.1255,-0.1282,-0.1352,-0.1377,-0.1428,-0.1444,-0.1435,-0.1453,-0.1439,-0.132,-0.131,-0.1493,-0.1498,-0.1454,-0.1455,-0.1456,-0.1457,0,-0.0838,-0.0912,-0.0954,-0.1031,-0.1054,-0.107,-0.1117,-0.1121,-0.1163,-0.1168,-0.1178,-0.1231,-0.1276,-0.1323,-0.1355,-0.1367,-0.1382,-0.1372,-0.123,-0.1204,-0.1366,-0.1373,-0.1277,-0.1276,-0.1275,-0.1275,-0.1274,0,-0.0818,-0.0841,-0.0924,-0.0943,-0.0985,-0.1023,-0.1039,-0.1095,-0.1101,-0.1156,-0.115,-0.1189,-0.1238,-0.1271,-0.1275,-0.1276,-0.1343,-0.1124,-0.1133,-0.1351,-0.1347,-0.1356,-0.1365,-0.0916,-0.0913,-0.091,-0.0908,0,-0.0763,-0.0806,-0.0837,-0.0871,-0.0906,-0.0936,-0.0974,-0.0984,-0.105,-0.1081,-0.1144,-0.1193,-0.1195,-0.1156,-0.1144,-0.1128,-0.1122,-0.1066,-0.1297,-0.1021,-0.1011,-0.1009,-0.1028,-0.0882,-0.0885,-0.0887,-0.0888,-0.0889,-0.0732,-0.0736,-0.0782,-0.0782,-0.0828,-0.0871,-0.0878,-0.094,-0.0987,-0.1055,-0.1122,-0.115,-0.1096,-0.1037,-0.099,-0.0906,-0.099,-0.091,-0.0917,-0.0928,-0.0943,-0.0936,-0.0793,-0.0795,-0.0797,-0.0798,-0.0799,0,-0.0705,-0.0716,-0.069,-0.0736,-0.0737,-0.0792,-0.0839,-0.0847,-0.092,-0.0994,-0.1078,-0.0932,-0.0915,-0.0857,-0.0693,-0.0667,-0.0642,-0.0617,-0.0572,-0.0596,-0.0617,-0.0617,-0.038,-0.038,-0.0379,-0.0378,0,0,-0.0735,-0.0683,-0.0624,-0.0604,-0.0658,-0.0697,-0.0723,-0.0754,-0.0784,-0.0818,-0.0822,-0.0967,-0.0873,-0.0674,-0.0586,-0.0466,-0.0539,-0.0427,-0.0753,-0.0727,-0.0749,-0.0762,-0.0787,0,0,0,0,0]},{"header":{"parameterUnit":"m.s-1","parameterCategory":2,"la1":30.2991,"la2":30.254,"lo1":-89.0895,"lo2":-89.0444,"dy":0.0017,"dx":0.0017,"nx":28,"ny":28,"refTime":"2024-05-04T09:00:00:Z","depth":"2","parameterNumber":3,"parameterNumberName":"V-component_of_CURRENTS"},"data":[0,0,0,0,0,0,0,0,0,0,0,0,0,0,0,0,0,0,0,0,0,0,0,0,0,0,0,0,0,0,0,0,0,0,0,0,0,0,0,0,0,0,0,0,0,0,0,0,0,0,0,0,0,0,0,0,0,0,-0.0387,-0.0386,0,-0.0271,-0.0269,-0.0267,-0.017,-0.017,-0.017,-0.017,-0.0009,-0.0005,-0.0001,0,0,0,0,0,0,0,0,0,0,0,0,0,-0.0323,-0.0325,-0.0387,-0.0386,-0.0386,-0.0272,-0.0269,-0.0266,-0.017,-0.017,-0.017,-0.017,-0.0011,-0.0006,-0.0001,0,0,0,0,0,0,0,0,0,0,0,0,0,-0.0284,-0.0325,-0.0387,-0.0332,-0.0327,-0.0272,-0.0269,-0.0266,-0.017,-0.017,-0.017,-0.017,-0.0012,-0.0006,0.0,0.0037,0,0,0.0019,0.0022,0,0,0,0,0,0,0,0,-0.0286,-0.0285,-0.0341,-0.0336,-0.033,-0.0244,-0.0188,-0.0166,-0.017,-0.0218,-0.017,-0.017,-0.0091,-0.0078,-0.0042,0.0045,0.0052,0.002,0.0024,0.0026,0.0028,0,0,0,0,0,0,0,-0.0289,-0.0288,-0.033,-0.034,-0.0334,-0.0245,-0.024,-0.0182,-0.0147,-0.0214,-0.0209,-0.0214,-0.0086,-0.0048,-0.0038,0.0054,0.002,0.0025,0.0029,0.0032,0.0185,0.0185,0,0,0,0,0,0,-0.0336,-0.0292,-0.0334,-0.0328,-0.0319,-0.0248,-0.0241,-0.0263,-0.0149,-0.0135,-0.0214,-0.021,-0.0059,-0.0045,-0.0032,0.0017,0.0026,0.0032,0.0036,0.0184,0.0185,0.0185,0,0,0,0,0,0,-0.0336,-0.0342,-0.0339,-0.0314,-0.0309,-0.0252,-0.0275,-0.0261,-0.0224,-0.0151,-0.0134,-0.0193,-0.0058,-0.004,0.0019,0.0024,0.0035,0.0041,0.0184,0.0184,0.0185,0.0116,0,0,0,0,0,0,-0.0335,-0.0343,-0.0363,-0.0319,-0.0313,-0.0321,-0.0276,-0.0259,-0.0232,-0.0225,-0.0128,-0.0112,-0.0057,0.0009,0.0025,0.0033,0.0046,0.0184,0.0184,0.0185,0.0118,0.0114,0.011,0,0,0,0,0,-0.0333,-0.0359,-0.0365,-0.037,-0.0348,-0.0323,-0.031,-0.0259,-0.0232,-0.0222,-0.0153,-0.0115,0.0023,0.0014,0.0033,0.0043,0.0183,0.0184,0.0185,0.0119,0.0115,0.0111,0,0,0,0,0,0,-0.0328,-0.0352,-0.0357,-0.0387,-0.037,-0.0311,-0.0302,-0.0265,-0.0199,-0.0189,-0.0108,-0.0088,-0.0033,0.0012,0.0,0.0088,0.0108,0.0113,0.0052,0.0048,0.0045,0.0021,0.0051,0,0,0,0,0,-0.0348,-0.0381,-0.0378,-0.04,-0.0403,-0.0354,-0.0334,-0.0303,-0.0249,-0.0219,-0.0145,-0.0073,-0.0014,0.002,0.0082,0.013,0.015,0.0148,0.0144,0.014,0.0134,0.0163,0.0161,0.0187,0.0187,0.0187,0,0,-0.0351,-0.0371,-0.0387,-0.0403,-0.0385,-0.0378,-0.0338,-0.0322,-0.0299,-0.0213,-0.0145,-0.0081,-0.0004,0.0052,0.008,0.0089,0.0142,0.0141,0.0138,0.0133,0.0163,0.0161,0.0158,0.0187,0.0187,0.0187,0,0,-0.0366,-0.0399,-0.0427,-0.0422,-0.0422,-0.0395,-0.0399,-0.0345,-0.0311,-0.025,-0.0184,-0.0125,-0.0019,0.0032,0.007,0.0082,0.0122,0.0107,0.0072,0.01,0.0098,0.0096,0.0105,0.0104,0.0105,0.0105,0.0104,0,-0.0368,-0.0407,-0.0423,-0.0438,-0.0433,-0.0411,-0.041,-0.0377,-0.0299,-0.0273,-0.0242,-0.0094,-0.003,0.0027,0.0037,0.0072,0.009,0.008,0.0093,0.0092,0.0091,0.0101,0.0101,0.0101,0.0102,0.0102,0.0102,0,-0.0394,-0.042,-0.0434,-0.0458,-0.045,-0.0449,-0.0428,-0.04,-0.0355,-0.0311,-0.0242,-0.0152,-0.0071,-0.0038,0.0009,0.004,0.0054,0.0082,0.0097,0.0084,0.0095,0.0097,0.0097,0.0098,0.0099,0.01,0,0,-0.0412,-0.0447,-0.0453,-0.0459,-0.046,-0.0452,-0.0439,-0.0415,-0.0396,-0.0326,-0.0286,-0.0188,-0.0148,-0.0103,-0.0041,-0.0007,0.0004,0.0033,0.0036,0.0028,0.0052,0.0085,0.0091,0.0035,0.0035,0.0036,0.0056,0,-0.0425,-0.0459,-0.0466,-0.0472,-0.0482,-0.0465,-0.0451,-0.0425,-0.0385,-0.0341,-0.0283,-0.0219,-0.0175,-0.013,-0.0098,-0.0009,0.0007,-0.0005,0.0078,0.008,0.0101,0.0094,0.0099,0.0121,0.0058,0.0058,0.0059,0,-0.045,-0.0467,-0.0488,-0.0484,-0.0486,-0.0484,-0.0463,-0.0443,-0.0407,-0.0372,-0.0329,-0.0274,-0.022,-0.0176,-0.0084,-0.0093,-0.0036,0.0024,0.0026,0.0083,0.0118,0.013,0.0127,0.0062,0.0061,0.0061,0.0061,0,-0.0463,-0.0478,-0.0496,-0.0497,-0.0494,-0.0494,-0.0484,-0.0455,-0.0437,-0.04,-0.0372,-0.0315,-0.0267,-0.02,-0.009,-0.0086,0.0014,0.0034,0.0106,0.0109,0.0143,0.0149,0.0082,0.0082,0.0082,0.0082,0.0082,0,-0.048,-0.0492,-0.0508,-0.0519,-0.0521,-0.0512,-0.0505,-0.0488,-0.0461,-0.0443,-0.0396,-0.0361,-0.0265,-0.0194,-0.0112,0.0,-0.0013,0.0095,0.012,0.012,0.0122,0.0101,0.0103,0.0082,0.0082,0.0082,0.0082,0,-0.0501,-0.0516,-0.0534,-0.0538,-0.0537,-0.0542,-0.0528,-0.0522,-0.0494,-0.047,-0.0461,-0.0393,-0.0306,-0.0208,-0.0085,-0.0016,0.0085,0.0126,0.0111,0.0134,0.0158,0.0156,0.0193,0.0195,0.0196,0.0197,0.0198,0,-0.0517,-0.0536,-0.0554,-0.0562,-0.057,-0.0572,-0.0573,-0.0548,-0.0543,-0.0485,-0.0479,-0.0392,-0.0334,-0.0156,-0.0016,0.0111,0.0114,0.0197,0.0211,0.0151,0.0171,0.0167,0.0164,0.022,0.0221,0.0221,0.0222,0,-0.0539,-0.0558,-0.0572,-0.059,-0.0602,-0.0607,-0.061,-0.061,-0.0581,-0.0555,-0.0516,-0.0464,-0.0288,-0.0137,0.0047,0.0131,0.0175,0.0218,0.0168,0.0196,0.018,0.0198,0.0193,0.0229,0.0228,0.0228,0.0227,0.0227,-0.0553,-0.0573,-0.0599,-0.0609,-0.0627,-0.0651,-0.0665,-0.0664,-0.0658,-0.0623,-0.0554,-0.0447,-0.028,-0.0013,0.0113,0.0244,0.0238,0.0283,0.0279,0.0274,0.0279,0.0267,0.0331,0.0331,0.0331,0.0331,0.0331,0,-0.0558,-0.0592,-0.0608,-0.0637,-0.0658,-0.0669,-0.0693,-0.0705,-0.0717,-0.0641,-0.0591,-0.0357,-0.0175,-0.0004,0.0208,0.0325,0.0316,0.0348,0.0312,0.0305,0.0299,0.0304,0.0364,0.0364,0.0364,0.0364,0,0,-0.057,-0.0593,-0.0603,-0.0645,-0.068,-0.074,-0.0765,-0.0773,-0.073,-0.0644,-0.0531,-0.0399,-0.0161,-0.0002,0.0148,0.0253,0.0242,0.0268,0.0234,0.0167,0.0159,0.0262,0.0263,0,0,0,0,0]}],[{"header":{"parameterUnit":"m.s-1","parameterCategory":2,"la1":30.2991,"la2":30.254,"lo1":-89.0895,"lo2":-89.0444,"dy":0.0017,"dx":0.0017,"nx":28,"ny":28,"refTime":"2024-05-04T09:00:00:Z","depth":"4","parameterNumber":2,"parameterNumberName":"U-component_of_CURRENTS"},"data":[0,0,0,0,0,0,0,0,0,0,0,0,0,0,0,0,0,0,0,0,0,0,0,0,0,0,0,0,0,0,0,0,0,0,0,0,0,0,0,0,0,0,0,0,0,0,0,0,0,0,0,0,0,0,0,0,0,0,-0.0147,-0.0147,0,-0.012,-0.012,-0.012,-0.0108,-0.0108,-0.0109,-0.0109,-0.008,-0.0079,-0.0078,0,0,0,0,0,0,0,0,0,0,0,0,0,-0.0196,-0.0195,-0.0147,-0.0147,-0.0147,-0.0121,-0.012,-0.012,-0.0108,-0.0109,-0.0109,-0.0109,-0.008,-0.0079,-0.0078,0,0,0,0,0,0,0,0,0,0,0,0,0,-0.0173,-0.0195,-0.0147,-0.0138,-0.0137,-0.0121,-0.012,-0.012,-0.0108,-0.0109,-0.0109,-0.0109,-0.008,-0.0079,-0.0078,-0.007,0,0,-0.0074,-0.0074,0,0,0,0,0,0,0,0,-0.0174,-0.0171,-0.0139,-0.0138,-0.0137,-0.0118,-0.0127,-0.0103,-0.0108,-0.0119,-0.0109,-0.0109,-0.0092,-0.009,-0.0085,-0.0068,-0.0067,-0.0074,-0.0073,-0.0073,-0.0073,0,0,0,0,0,0,0,-0.0176,-0.0172,-0.0137,-0.0139,-0.0138,-0.0137,-0.0134,-0.0122,-0.0106,-0.0118,-0.0117,-0.0114,-0.0091,-0.0086,-0.0084,-0.0067,-0.0074,-0.0073,-0.0072,-0.0072,-0.0084,-0.0085,0,0,0,0,0,0,-0.0178,-0.0174,-0.0138,-0.0136,-0.0156,-0.0136,-0.0132,-0.0124,-0.0106,-0.0103,-0.0114,-0.0114,-0.0088,-0.0086,-0.0083,-0.0112,-0.0073,-0.0072,-0.0071,-0.0083,-0.0084,-0.0085,0,0,0,0,0,0,-0.0179,-0.0175,-0.0139,-0.0155,-0.015,-0.0135,-0.0126,-0.0123,-0.0123,-0.0103,-0.01,-0.0117,-0.0088,-0.0085,-0.0084,-0.0109,-0.0071,-0.007,-0.0081,-0.0083,-0.0084,-0.0144,0,0,0,0,0,0,-0.018,-0.0175,-0.0171,-0.0154,-0.0149,-0.0134,-0.0126,-0.0123,-0.012,-0.012,-0.0104,-0.0101,-0.0088,-0.0086,-0.0083,-0.0107,-0.0069,-0.008,-0.0082,-0.0084,-0.0141,-0.0148,-0.0153,0,0,0,0,0,-0.0182,-0.0175,-0.0171,-0.0167,-0.0143,-0.0134,-0.0131,-0.0121,-0.0121,-0.0121,-0.0116,-0.0102,-0.0096,-0.0085,-0.0081,-0.0106,-0.0079,-0.0082,-0.0084,-0.0138,-0.0146,-0.0153,0,0,0,0,0,0,-0.0193,-0.0173,-0.0168,-0.0154,-0.0147,-0.0132,-0.0127,-0.0126,-0.0121,-0.0122,-0.0107,-0.0104,-0.0112,-0.01,-0.0089,-0.0116,-0.0088,-0.009,-0.0131,-0.0138,-0.0144,-0.0147,-0.0068,0,0,0,0,0,-0.0194,-0.0183,-0.0168,-0.0159,-0.0154,-0.0143,-0.0139,-0.0136,-0.0129,-0.0127,-0.0121,-0.0117,-0.0118,-0.0121,-0.0112,-0.0124,-0.0116,-0.014,-0.0146,-0.0152,-0.0152,-0.0167,-0.0174,-0.0093,-0.0092,-0.0092,0,0,-0.0196,-0.0183,-0.0177,-0.0161,-0.0151,-0.0151,-0.014,-0.0136,-0.015,-0.0124,-0.0139,-0.0131,-0.0124,-0.0139,-0.0143,-0.0134,-0.0172,-0.0155,-0.0159,-0.0157,-0.017,-0.0178,-0.0185,-0.0094,-0.0094,-0.0094,0,0,-0.0192,-0.0182,-0.0171,-0.0168,-0.0158,-0.0158,-0.016,-0.0153,-0.0163,-0.017,-0.0165,-0.0178,-0.0167,-0.0182,-0.0184,-0.022,-0.0198,-0.0216,-0.0257,-0.0272,-0.0279,-0.0285,-0.0289,-0.0295,-0.0228,-0.0228,-0.0228,0,-0.0195,-0.0178,-0.0169,-0.0162,-0.0165,-0.0164,-0.0166,-0.0178,-0.0179,-0.02,-0.018,-0.02,-0.0192,-0.0233,-0.0244,-0.0236,-0.023,-0.023,-0.028,-0.0286,-0.0291,-0.0294,-0.0299,-0.0231,-0.023,-0.023,-0.023,0,-0.0185,-0.0176,-0.0171,-0.0165,-0.0173,-0.0173,-0.019,-0.0212,-0.0222,-0.0237,-0.0271,-0.0264,-0.0276,-0.0285,-0.027,-0.0314,-0.0294,-0.0281,-0.0262,-0.0303,-0.0303,-0.0308,-0.0235,-0.0234,-0.0233,-0.0232,0,0,-0.0172,-0.0165,-0.0161,-0.0163,-0.0176,-0.018,-0.0222,-0.0258,-0.0295,-0.0305,-0.0346,-0.036,-0.0357,-0.0359,-0.0356,-0.0375,-0.0406,-0.0343,-0.0342,-0.0348,-0.0428,-0.0372,-0.0372,-0.0398,-0.0399,-0.0399,-0.0416,0,-0.0163,-0.0149,-0.0161,-0.0169,-0.0165,-0.0201,-0.0243,-0.0287,-0.032,-0.0362,-0.0386,-0.0407,-0.0387,-0.039,-0.0409,-0.0398,-0.042,-0.0402,-0.0387,-0.0386,-0.0332,-0.0376,-0.0403,-0.0419,-0.0421,-0.0421,-0.0422,0,-0.0144,-0.0137,-0.0136,-0.017,-0.0176,-0.0195,-0.0269,-0.0306,-0.0383,-0.0408,-0.0447,-0.0455,-0.0488,-0.0455,-0.0475,-0.046,-0.0447,-0.0444,-0.0444,-0.0372,-0.0339,-0.0368,-0.043,-0.0429,-0.0429,-0.0428,-0.0428,0,-0.0118,-0.0125,-0.0125,-0.0131,-0.017,-0.0199,-0.0234,-0.0316,-0.0362,-0.0431,-0.0459,-0.0502,-0.0506,-0.051,-0.0487,-0.0482,-0.0497,-0.049,-0.0438,-0.0434,-0.0452,-0.0445,-0.0512,-0.0512,-0.0512,-0.0512,-0.0512,0,-0.0098,-0.0096,-0.0108,-0.0104,-0.0128,-0.0175,-0.0227,-0.0279,-0.036,-0.04,-0.0465,-0.0482,-0.0516,-0.0525,-0.0507,-0.0476,-0.0511,-0.0451,-0.0439,-0.0477,-0.0473,-0.0455,-0.0448,-0.0513,-0.0513,-0.0513,-0.0513,0,-0.0063,-0.0069,-0.0063,-0.0095,-0.0106,-0.0122,-0.0198,-0.0239,-0.0325,-0.0374,-0.0391,-0.047,-0.0476,-0.0507,-0.0511,-0.049,-0.0476,-0.0457,-0.0493,-0.0481,-0.0402,-0.0398,-0.0417,-0.0415,-0.0414,-0.0413,-0.0412,0,-0.0042,-0.0029,-0.0037,-0.0032,-0.004,-0.0074,-0.01,-0.0195,-0.0226,-0.0341,-0.0339,-0.0403,-0.0435,-0.0422,-0.0442,-0.0441,-0.0429,-0.0431,-0.0428,-0.0408,-0.0395,-0.0393,-0.0392,-0.0409,-0.0409,-0.0408,-0.0408,0,0.0001,0.0002,0.0004,0.0021,0.0015,-0.0003,-0.0034,-0.0064,-0.0164,-0.0242,-0.0291,-0.0338,-0.0355,-0.0376,-0.0388,-0.0375,-0.0439,-0.0416,-0.0419,-0.0416,-0.0399,-0.0387,-0.0387,-0.0403,-0.0404,-0.0404,-0.0404,0,0.0035,0.0046,0.0055,0.0062,0.0069,0.0073,0.0037,-0.0001,-0.0059,-0.0188,-0.018,-0.0264,-0.0322,-0.0338,-0.0328,-0.0337,-0.0336,-0.0331,-0.0339,-0.0345,-0.0314,-0.0281,-0.0245,0,0,0,0,0,0.0075,0.008,0.0093,0.0103,0.0112,0.0113,0.0084,0.004,-0.0047,-0.0065,-0.0139,-0.0155,-0.0211,-0.0244,-0.0239,-0.028,-0.0321,-0.0271,-0.0314,-0.0375,-0.038,-0.0351,0,0,0,0,0,0,0.0096,0.0111,0.0103,0.0138,0.0151,0.0158,0.0143,0.0084,0.0067,-0.0026,-0.0051,-0.0128,-0.017,-0.0207,-0.0231,-0.024,-0.0259,-0.0317,-0.0316,-0.0371,-0.0377,-0.0381,-0.0353,0,0,0,0,0]},{"header":{"parameterUnit":"m.s-1","parameterCategory":2,"la1":30.2991,"la2":30.254,"lo1":-89.0895,"lo2":-89.0444,"dy":0.0017,"dx":0.0017,"nx":28,"ny":28,"refTime":"2024-05-04T09:00:00:Z","depth":"4","parameterNumber":3,"parameterNumberName":"V-component_of_CURRENTS"},"data":[0,0,0,0,0,0,0,0,0,0,0,0,0,0,0,0,0,0,0,0,0,0,0,0,0,0,0,0,0,0,0,0,0,0,0,0,0,0,0,0,0,0,0,0,0,0,0,0,0,0,0,0,0,0,0,0,0,0,-0.0024,-0.0024,0,-0.0052,-0.0052,-0.0052,-0.0026,-0.0025,-0.0024,-0.0024,0.0034,0.0035,0.0035,0,0,0,0,0,0,0,0,0,0,0,0,0,0.0022,0.0022,-0.0024,-0.0024,-0.0025,-0.0052,-0.0052,-0.0052,-0.0027,-0.0025,-0.0024,-0.0023,0.0034,0.0034,0.0035,0,0,0,0,0,0,0,0,0,0,0,0,0,-0.0,0.0021,-0.0024,-0.0016,-0.0015,-0.0052,-0.0052,-0.0052,-0.0027,-0.0025,-0.0024,-0.0023,0.0033,0.0034,0.0035,0.0012,0,0,0.0038,0.0039,0,0,0,0,0,0,0,0,0.0001,-0.0002,-0.0017,-0.0016,-0.0016,-0.0035,-0.0015,-0.0027,-0.0027,-0.0022,-0.0024,-0.0022,0.0017,0.002,0.0011,0.0015,0.0018,0.0038,0.0039,0.0039,0.004,0,0,0,0,0,0,0,0.0003,-0.0,-0.0034,-0.0017,-0.0017,-0.0021,-0.0022,-0.0017,-0.0008,-0.0022,-0.002,-0.0025,0.0018,0.001,0.0013,0.0018,0.0038,0.0039,0.004,0.004,0.0069,0.0069,0,0,0,0,0,0,0.0004,0.0001,-0.0033,-0.0035,-0.0005,-0.0023,-0.0024,-0.003,-0.001,-0.0006,-0.0027,-0.0024,0.0008,0.0012,0.0015,0.0043,0.0039,0.004,0.0041,0.0069,0.0069,0.0069,0,0,0,0,0,0,0.0005,0.0001,-0.0032,-0.0018,-0.0023,-0.0025,-0.0032,-0.0031,-0.003,-0.0014,-0.0008,-0.0025,0.0009,0.0014,0.0027,0.0044,0.0041,0.0042,0.0068,0.0069,0.0069,0.0066,0,0,0,0,0,0,0.0007,0.0002,-0.0003,-0.0018,-0.0023,-0.0056,-0.0033,-0.0033,-0.0036,-0.0033,-0.0011,-0.0005,0.0011,0.0025,0.0028,0.0045,0.0042,0.0068,0.0069,0.0069,0.0066,0.0066,0.0066,0,0,0,0,0,0.0008,-0.0006,-0.0004,-0.0008,-0.003,-0.0057,-0.006,-0.0056,-0.0038,-0.0047,-0.0024,-0.0005,0.003,0.0025,0.0029,0.0047,0.0068,0.0068,0.0069,0.0065,0.0066,0.0066,0,0,0,0,0,0,0.001,-0.0005,-0.0003,-0.0021,-0.0038,-0.0052,-0.0063,-0.0057,-0.005,-0.0038,-0.0013,-0.0007,0.0014,0.0024,0.0019,0.0056,0.0056,0.0057,0.0052,0.0053,0.0053,0.0045,0.0043,0,0,0,0,0,0.0006,-0.0006,-0.0022,-0.0039,-0.0047,-0.0054,-0.0063,-0.006,-0.0057,-0.0052,-0.003,-0.0005,0.0014,0.0028,0.0042,0.0054,0.0066,0.0071,0.0071,0.0071,0.0066,0.0104,0.0107,0.007,0.007,0.007,0,0,0.0001,-0.0009,-0.0016,-0.0039,-0.005,-0.0073,-0.0055,-0.0071,-0.0076,-0.0047,-0.0035,-0.0008,0.0015,0.0035,0.0046,0.0049,0.0085,0.0072,0.0072,0.0067,0.0105,0.0108,0.0111,0.0071,0.0071,0.0071,0,0,-0.0022,-0.0024,-0.0044,-0.0061,-0.008,-0.0086,-0.0089,-0.0095,-0.0082,-0.0073,-0.0045,-0.0011,0.0014,0.0038,0.0052,0.0058,0.0082,0.0071,0.007,0.0107,0.011,0.0114,0.0123,0.0127,0.0076,0.0076,0.0076,0,-0.0026,-0.0054,-0.0056,-0.0082,-0.0098,-0.0091,-0.0117,-0.0113,-0.0107,-0.0091,-0.0066,-0.0009,0.0016,0.0042,0.0054,0.006,0.0076,0.0068,0.0108,0.0111,0.0115,0.0124,0.0129,0.0075,0.0075,0.0075,0.0075,0,-0.0065,-0.0089,-0.0104,-0.0131,-0.0148,-0.0171,-0.0168,-0.016,-0.013,-0.0113,-0.0069,-0.0026,0.0012,0.0032,0.0048,0.0086,0.0086,0.0101,0.0107,0.0118,0.0127,0.0132,0.0075,0.0075,0.0075,0.0075,0,0,-0.0072,-0.0122,-0.0127,-0.015,-0.0174,-0.0193,-0.0194,-0.0193,-0.0185,-0.0137,-0.0111,-0.0052,-0.001,0.0009,0.0044,0.0083,0.0125,0.0106,0.0108,0.0114,0.0191,0.0172,0.0175,0.0154,0.0155,0.0156,0.0184,0,-0.0102,-0.016,-0.0173,-0.0223,-0.0252,-0.0247,-0.0251,-0.0241,-0.0209,-0.018,-0.0108,-0.0068,-0.0025,0.0009,0.0054,0.0107,0.0139,0.0115,0.018,0.0181,0.0163,0.0181,0.0159,0.0188,0.0189,0.019,0.019,0,-0.0133,-0.0169,-0.0223,-0.0268,-0.0278,-0.0293,-0.0294,-0.0295,-0.0251,-0.0219,-0.0158,-0.0108,-0.0038,0.0001,0.0099,0.0085,0.0135,0.0177,0.018,0.0166,0.0172,0.0178,0.0199,0.0198,0.0198,0.0197,0.0197,0,-0.0137,-0.0202,-0.0245,-0.0263,-0.0308,-0.0309,-0.0311,-0.029,-0.0288,-0.0227,-0.021,-0.0126,-0.0073,0.0009,0.0108,0.0109,0.0209,0.0218,0.024,0.0238,0.0248,0.0244,0.0281,0.0281,0.0281,0.0281,0.028,0,-0.0164,-0.0199,-0.0245,-0.0269,-0.0303,-0.0315,-0.0327,-0.0312,-0.0293,-0.0294,-0.0217,-0.0196,-0.0063,0.0009,0.0095,0.0183,0.0202,0.0238,0.0251,0.0243,0.0239,0.0251,0.0247,0.0282,0.0281,0.0281,0.0281,0,-0.0165,-0.0201,-0.0254,-0.0299,-0.0308,-0.032,-0.0342,-0.0354,-0.0325,-0.0321,-0.0299,-0.0234,-0.0136,-0.0022,0.0108,0.0158,0.025,0.0274,0.0243,0.0254,0.025,0.0246,0.0288,0.0288,0.0288,0.0288,0.0287,0,-0.0173,-0.02,-0.0264,-0.0287,-0.0303,-0.0325,-0.0346,-0.0353,-0.0366,-0.035,-0.035,-0.0265,-0.0207,-0.0035,0.0075,0.0224,0.0247,0.0278,0.0278,0.0246,0.0254,0.025,0.0246,0.0287,0.0287,0.0287,0.0287,0,-0.0182,-0.0202,-0.0242,-0.0285,-0.0317,-0.0368,-0.0386,-0.0394,-0.0405,-0.0413,-0.0368,-0.0282,-0.0186,-0.0048,0.0075,0.0178,0.0252,0.0276,0.0277,0.0277,0.0245,0.0252,0.0249,0.0286,0.0286,0.0286,0.0286,0,-0.0176,-0.0201,-0.0244,-0.0277,-0.0326,-0.0361,-0.0384,-0.0396,-0.041,-0.0392,-0.0388,-0.0276,-0.0224,-0.0075,0.0032,0.0142,0.0158,0.0182,0.0188,0.0191,0.0158,0.0103,0.0111,0,0,0,0,0,-0.0167,-0.0187,-0.0227,-0.0266,-0.0314,-0.0341,-0.0396,-0.0421,-0.0443,-0.0412,-0.0391,-0.0299,-0.0147,-0.0089,0.0021,0.0022,0.0175,0.0148,0.0207,0.0281,0.0282,0.0259,0,0,0,0,0,0,-0.0163,-0.0198,-0.022,-0.0244,-0.026,-0.032,-0.0353,-0.0379,-0.0357,-0.0362,-0.0272,-0.0278,-0.0116,-0.0183,0.0031,0.0054,0.01,0.0207,0.0209,0.028,0.0281,0.0282,0.0259,0,0,0,0,0]}]]